Location: Wald
(31.7579°N, 86.6655°W)
Time: 21:10:41
(UTC+00:00)

SEDSat Delta rocket - Pass Details

Date: 14 July 2020
Orbit: 533 x 1001 km, 31.4° (Epoch: 13 August)

Event Time Altitude Azimuth Distance (km) Brightness Sun altitude
Rises 03:27:29 0° 264° (W) 3,223 7.1 -26.3°
Reaches altitude 10° 03:29:49 10° 263° (W) 2,368 6.4 -26.6°
Maximum altitude 03:35:32 86° 176° (S) 883 3.6 -27.4°
Enters shadow 03:35:54 80° 106° (ESE) 898 3.6 -27.4°
